Simultaneous Nadir Overpasses (SNOs) Predictions

Prediction of SNOs between AQUA and NPP Satellite Orbit:

Table of predicted SNOs for the next 14.0 days since TLE Epoch: 5/25/2013
Index Date (AQUA) Time (AQUA) Lat,Lon (AQUA) SZA (AQUA ) Date (NPP) Time (NPP) Lat,Lon (NPP) SZA (NPP ) Distance(km) Time Diff (sec)
1 05/26/2013 22:38:42 76.13, 79.79 76.09 05/26/2013 22:38:07 76.13, 79.87 76.10 2.34 35
2 05/26/2013 23:27:53 -76.92,-109.90 104.86 05/26/2013 23:28:35 -76.92,-109.86 104.91 1.28 42
3 05/29/2013 14:55:11 76.11,-164.39 75.71 05/29/2013 14:55:03 76.10,-164.47 75.74 2.33 8
4 05/29/2013 15:44:21 -76.95, 6.09 105.30 05/29/2013 15:45:30 -76.94, 5.98 105.33 3.05 69
5 06/01/2013 06:22:25 -75.55, 142.17 103.99 06/01/2013 06:21:26 -75.55, 142.18 103.95 0.27 59
6 06/01/2013 07:11:28 76.64, -46.77 74.73 06/01/2013 07:11:46 76.65, -46.69 74.70 2.22 18
7 06/03/2013 22:38:43 -76.01,-100.58 104.83 06/03/2013 22:38:11 -76.02,-100.51 104.82 1.91 32
8 06/03/2013 23:27:54 76.70, 69.33 74.35 06/03/2013 23:28:40 76.69, 69.26 74.33 2.13 46
9 06/06/2013 14:55:03 -76.29, 16.19 105.42 06/06/2013 14:54:59 -76.29, 16.22 105.42 0.86 4




NCC Satellite Simultaneous Nadir Overpasses (SNOs) Prediction Service
